EW7598 Weather Reports


time (UTC)temp
C
wind
direction
speed
KPH
gust
KPH
rain 1hr
cm
rain 24hr
cm
rain mn
cm
humidity
%
barometer
mb
20260510183100 26 212 1.6 4.8 0.00 0.00 0.00 34 1014.6
20260510181602 26 206 0.0 3.2 0.00 0.00 0.00 38 1014.8
20260510180117 26 320 0.0 4.8 0.00 0.00 0.00 34 1015.0
20260510174555 25 32 0.0 4.8 0.00 0.00 0.00 38 1015.0
20260510173054 25 288 0.0 4.8 0.00 0.00 0.00 36 1015.2
20260510171559 25 352 1.6 9.7 0.00 0.00 0.00 41 1015.3
20260510170054 25 23 0.0 6.4 0.00 0.00 0.00 38 1015.4
20260510164558 25 347 1.6 9.7 0.00 0.00 0.00 36 1015.5
20260510163116 25 287 0.0 4.8 0.00 0.00 0.00 38 1015.5
20260510161600 25 342 3.2 12.9 0.00 0.00 0.00 38 1015.7
20260510160058 25 51 1.6 0.0 0.00 0.00 0.00 37 1015.8
20260510154549 25 253 0.0 6.4 0.00 0.00 0.00 41 1015.6
20260510153051 25 323 0.0 9.7 0.00 0.00 0.00 42 1015.7
20260510151546 24 270 0.0 6.4 0.00 0.00 0.00 44 1015.8
20260510150040 23 37 1.6 9.7 0.00 0.00 0.00 47 1016.0
20260510144543 23 31 1.6 9.7 0.00 0.00 0.00 50 1016.0
20260510143047 23 355 1.6 9.7 0.00 0.00 0.00 49 1015.9
20260510141536 22 20 3.2 8.0 0.00 0.00 0.00 60 1015.8
20260510140030 21 258 0.0 4.8 0.00 0.00 0.00 66 1015.8
20260510134523 21 285 0.0 8.0 0.00 0.00 0.00 73 1015.8
20260510133030 20 243 0.0 11.3 0.00 0.00 0.00 75 1015.8
20260510131514 18 265 0.0 1.6 0.00 0.00 0.00 81 1015.9
20260510130010 17 358 0.0 8.0 0.00 0.00 0.00 81 1015.9
20260510124507 16 193 0.0 0.0 0.00 0.00 0.00 72 1015.7
20260510123005 16 193 0.0 0.0 0.00 0.00 0.00 70 1015.6
20260510121559 15 193 0.0 0.0 0.00 0.00 0.00 70 1015.3
20260510120057 14 193 0.0 0.0 0.00 0.00 0.00 70 1015.2
20260510114555 13 193 0.0 0.0 0.00 0.00 0.00 71 1014.7
20260510113103 12 193 0.0 0.0 0.00 0.00 0.00 72 1014.6
20260510111556 12 193 0.0 0.0 0.00 0.00 0.00 72 1014.3
20260510110048 12 193 0.0 0.0 0.00 0.00 0.00 72 1014.0
20260510104555 12 193 0.0 0.0 0.00 0.00 0.00 72 1013.7
20260510103049 12 193 0.0 0.0 0.00 0.00 0.00 72 1013.6
20260510101542 12 193 0.0 0.0 0.00 0.00 0.00 72 1013.2
20260510100041 12 193 0.0 0.0 0.00 0.00 0.00 72 1013.1
20260510094541 12 193 0.0 0.0 0.00 0.00 0.00 72 1013.0
20260510093052 12 193 0.0 1.6 0.00 0.00 0.00 73 1012.9
20260510091537 13 193 0.0 0.0 0.00 0.00 0.00 73 1012.8
20260510090037 13 193 0.0 0.0 0.00 0.00 0.00 72 1012.7
20260510084536 13 193 0.0 0.0 0.00 0.00 0.00 72 1012.5
20260510083038 13 193 0.0 0.0 0.00 0.00 0.00 72 1012.7
20260510081541 13 193 0.0 0.0 0.00 0.00 0.00 72 1012.4
20260510080030 13 193 0.0 0.0 0.00 0.00 0.00 72 1012.2
20260510074530 13 193 0.0 0.0 0.00 0.00 0.00 73 1012.2
20260510073028 13 193 0.0 0.0 0.00 0.00 0.00 73 1012.3
20260510071528 13 193 0.0 0.0 0.00 0.00 0.00 72 1012.2
20260510070026 13 193 0.0 0.0 0.00 0.00 0.00 73 1012.1
20260510064535 13 193 0.0 0.0 0.00 0.00 0.00 73 1012.1
20260510063036 13 193 0.0 0.0 0.00 0.00 0.00 74 1012.1
20260510061527 14 193 0.0 0.0 0.00 0.00 0.00 74 1012.2
20260510060035 14 193 0.0 0.0 0.00 0.00 0.00 73 1012.1
20260510054523 14 193 0.0 0.0 0.00 0.00 0.00 74 1012.2
20260510053034 14 193 0.0 0.0 0.00 0.00 0.00 74 1012.4
20260510051522 14 193 0.0 0.0 0.00 0.00 0.00 74 1012.4
20260510050016 14 193 0.0 0.0 0.00 0.00 0.00 74 1012.6
20260510044533 14 193 0.0 0.0 0.00 0.00 0.00 75 1012.6
20260510043014 15 193 0.0 0.0 0.00 0.00 0.00 75 1012.5
20260510041511 15 193 0.0 0.0 0.00 0.00 0.00 75 1012.7
20260510040008 15 193 0.0 0.0 0.00 0.00 0.00 76 1012.6
20260510034510 15 193 0.0 0.0 0.00 0.00 0.00 76 1012.6
20260510033008 15 193 0.0 0.0 0.00 0.00 0.00 77 1012.6
20260510031508 15 193 0.0 0.0 0.00 0.00 0.00 78 1012.6
20260510030008 15 193 0.0 0.0 0.00 0.00 0.00 79 1012.5
20260510024508 15 193 0.0 0.0 0.00 0.00 0.00 80 1012.4
20260510023007 15 193 0.0 0.0 0.00 0.00 0.00 80 1012.3
20260510021506 16 193 0.0 0.0 0.00 0.00 0.00 82 1012.1
20260510020005 16 193 0.0 0.0 0.00 0.00 0.00 82 1012.2
20260510014505 16 193 0.0 0.0 0.00 0.00 0.00 82 1012.0
20260510013103 16 193 0.0 0.0 0.00 0.00 0.00 82 1011.8
20260510011503 16 193 0.0 0.0 0.00 0.00 0.00 82 1011.5
20260510004501 17 193 0.0 0.0 0.00 0.00 0.00 81 1010.7
20260510003105 18 193 0.0 0.0 0.00 0.00 0.00 81 1010.7
20260510001600 18 193 0.0 0.0 0.00 0.00 0.00 80 1010.5
20260509234600 20 193 0.0 1.6 0.00 0.00 0.00 78 1010.3
20260509233104 20 195 0.0 3.2 0.00 0.00 0.00 77 1010.2
20260509231557 20 200 0.0 3.2 0.00 0.00 0.00 77 1009.9
20260509230058 20 198 0.0 3.2 0.00 0.00 0.00 77 1010.0
20260509224556 20 179 0.0 3.2 0.00 0.00 0.00 77 1009.8
20260509223100 21 188 0.0 4.8 0.00 0.00 0.00 76 1009.7
20260509221555 21 174 3.2 8.0 0.00 0.00 0.00 75 1009.6
20260509220056 20 191 0.0 4.8 0.00 0.00 0.00 76 1009.7
20260509214553 20 167 0.0 4.8 0.00 0.00 0.00 76 1009.7
20260509213054 20 155 1.6 4.8 0.00 0.00 0.00 75 1009.7
20260509211552 21 169 4.8 8.0 0.00 0.00 0.00 74 1009.8
20260509210051 21 172 0.0 6.4 0.00 0.00 0.00 75 1009.6
20260509204550 21 200 0.0 4.8 0.00 0.00 0.00 74 1009.4
20260509203049 21 200 0.0 4.8 0.00 0.00 0.00 72 1009.8
20260509201556 21 191 0.0 6.4 0.00 0.00 0.00 73 1009.6
20260509200057 21 284 0.0 3.2 0.00 0.00 0.00 73 1009.9
20260509194542 21 217 0.0 3.2 0.00 0.00 0.00 73 1010.1
20260509193059 20 214 0.0 4.8 0.00 0.00 0.00 73 1010.4
20260509191541 20 205 0.0 3.2 0.00 0.00 0.00 75 1010.6
20260509190039 20 203 0.0 1.6 0.00 0.00 0.00 75 1010.7
20260509184545 20 203 0.0 4.8 0.00 0.00 0.00 76 1010.5